This is the latest recevied weather packets stored in our database for station/object MB7UUE. If no packets are shown the sender has not sent any weather packets the latest 10 day(s).
| Time | Temp. | Humidity | Pressure | Rain* | Wind** | Luminosity | Snow |
|---|---|---|---|---|---|---|---|
| 1787568530 | 19.44° C | 57% | 1020.1 hPa | 0 mm | - | - | - |
| 1787567389 | 19.44° C | 59% | 1020.4 hPa | 0 mm | - | - | - |
| 1787566250 | 19.44° C | 62% | 1020.6 hPa | 0 mm | - | - | - |
| 1787565110 | 18.89° C | 57% | 1020.8 hPa | 0 mm | - | - | - |
| 1787563969 | 19.44° C | 59% | 1020.9 hPa | 0 mm | - | - | - |
| 1787562829 | 19.44° C | 59% | 1021 hPa | 0 mm | - | - | - |
| 1787561692 | 18.89° C | 61% | 1021.1 hPa | 0 mm | - | - | - |
| 1787560551 | 18.89° C | 62% | 1021.1 hPa | 0 mm | - | - | - |
| 1787559412 | 17.78° C | 64% | 1021.1 hPa | 0 mm | - | - | - |
| 1787558270 | 17.22° C | 67% | 1021.2 hPa | 0 mm | - | - | - |
| 1787557130 | 16.67° C | 67% | 1021.5 hPa | 0 mm | - | - | - |
| 1787555989 | 16.11° C | 67% | 1021.6 hPa | 0 mm | - | - | - |
| 1787554850 | 16.11° C | 71% | 1021.6 hPa | 0 mm | - | - | - |
| 1787553709 | 15.56° C | 71% | 1021.7 hPa | 0 mm | - | - | - |
| 1787552570 | 15° C | 71% | 1021.7 hPa | 0 mm | - | - | - |
| 1787551430 | 14.44° C | 74% | 1021.8 hPa | 0 mm | - | - | - |
| 1787550290 | 13.89° C | 74% | 1021.8 hPa | 0 mm | - | - | - |
| 1787550125 | 13.89° C | 74% | 1021.9 hPa | 0 mm | - | - | - |
| 1787550017 | 13.89° C | 74% | 1021.8 hPa | 0 mm | - | - | - |
| 1787548985 | 13.33° C | 73% | 1022.1 hPa | 0 mm | - | - | - |
| 1787548877 | 13.33° C | 73% | 1022.1 hPa | 0 mm | - | - | - |
| 1787547846 | 13.33° C | 73% | 1022.2 hPa | 0 mm | - | - | - |
| 1787547737 | 13.33° C | 73% | 1022.1 hPa | 0 mm | - | - | - |
| 1787546704 | 13.33° C | 73% | 1022.1 hPa | 0 mm | - | - | - |
| 1787546598 | 13.33° C | 73% | 1022.2 hPa | 0 mm | - | - | - |
* Rain latest hour (hover to see other rain measurements)
** Current wind speed in m/s (hover to see current wind gust speed)